Location: Cherry Springs State Park
(41.6616°N, 77.8240°W)
Time: 21:11:28
(UTC-04:00)

Amateur Radio Satellites - All Passes

Search period start: 22 May 2015 20:41
Search period end: 23 May 2015 20:41
Location: Cherry Springs State Park, 41.6616°N, 77.8240°W

Satellite Date Start Highest point End Downlink Frequencies (MHz)
Time Altitude Azimuth
DOVE 4 22 May 20:42:42 20:47:31 51° 73° (ENE) 20:52:38 437.250
CUBEBUG 2 22 May 20:47:04 20:49:44 15° 64° (ENE) 20:52:35 437.445
GOMX 1 22 May 20:55:45 21:00:44 83° 257° (WSW) 21:06:06 467.674
CINEMA 3 22 May 20:57:12 21:01:41 36° 70° (ENE) 21:06:18 145.822/145.860
COMPASS 1 22 May 20:58:55 21:02:56 45° 73° (ENE) 21:06:58 437.405
CUBESAT XI-V 22 May 21:02:00 21:04:53 16° 295° (WNW) 21:07:36 437.345
ZACube-1 22 May 21:10:08 21:12:54 16° 65° (ENE) 21:15:50 437.345
AAUSAT CUBESAT 2 22 May 21:15:11 21:19:17 60° 75° (ENE) 21:23:25 437.432
BEESAT 2 22 May 21:16:24 21:19:35 21° 316° (NW) 21:22:43 435.950
PRISM 22 May 21:18:49 21:21:39 18° 294° (WNW) 21:24:22 437.425
UKube-1 22 May 21:24:39 21:25:15 10° 62° (ENE) 21:26:05 .
DX 1 22 May 21:25:16 21:26:41 12° 62° (ENE) 21:28:19 434.975-435.025
Oscar 11 22 May 21:32:29 21:36:35 43° 72° (ENE) 21:40:44 145.826/435.025
CANX-2 22 May 21:38:52 21:42:51 37° 263° (W) 21:46:49 2200.000
YUBILEINY 22 May 21:41:01 21:47:17 21° 279° (W) 21:53:07 435.215
Cosmos 2491 22 May 21:41:05 21:49:23 44° 288° (WNW) 21:57:41 435.465 / 435.565
UWE-3 22 May 21:42:47 21:47:11 43° 72° (ENE) 21:51:38 435.000/436.395/437.385
CUTE 1.7 + AOD 2 22 May 21:43:12 21:47:11 36° 263° (W) 21:51:08 437.475
HUMSAT D 22 May 21:44:16 21:46:54 16° 66° (ENE) 21:49:40 437.325/437.525
AISAT 22 May 21:50:24 21:51:37 11° 62° (ENE) 21:53:04 437.250
M-CUBED/EXP-1 PRIME 22 May 21:53:49 21:55:21 12° 300° (WNW) 21:56:45 437.505
AIST 1 22 May 21:56:54 22:01:09 77° 278° (W) 22:05:26
STRAND 1 22 May 22:00:58 22:03:29 13° 299° (WNW) 22:05:46 437.568
FUNcube-1 22 May 22:05:53 22:10:23 57° 74° (ENE) 22:14:54 145.935
Cosmos 2504 22 May 22:07:24 22:14:39 68° 79° (E) 22:21:48 435.465 / 435.565
AUBIESAT-1 22 May 22:07:42 22:08:10 10° 301° (WNW) 22:08:26 437.475
HO-68 22 May 22:08:53 22:15:15 32° 265° (W) 22:21:31 435.675
BRITE-PL 22 May 22:10:47 22:12:31 11° 277° (W) 22:13:57 437.365/2234.400
50 SAT 22 May 22:12:43 22:15:21 18° 67° (ENE) 22:18:06 437.505
AIST 2 22 May 22:13:11 22:16:24 20° 317° (NW) 22:19:32 435.215
SEEDS 22 May 22:14:25 22:17:41 21° 267° (W) 22:20:50 437.485
DELFI C3 22 May 22:14:58 22:19:01 84° 255° (WSW) 22:23:05 145.870
CUBEBUG 2 22 May 22:21:14 22:25:56 63° 259° (W) 22:30:43 437.445
DOVE 4 22 May 22:21:57 22:25:39 20° 271° (W) 22:29:18 437.250
CINEMA 3 22 May 22:34:47 22:38:57 26° 267° (W) 22:43:08 145.822/145.860
COMPASS 1 22 May 22:36:24 22:38:54 15° 270° (W) 22:41:15 437.405
ESTCUBE 1 22 May 22:38:36 22:41:48 20° 67° (ENE) 22:45:08 437.505/2401.250
ZACube-1 22 May 22:44:20 22:48:51 55° 261° (W) 22:53:24 437.345
VELOX 1 22 May 22:53:33 22:57:47 47° 72° (ENE) 23:02:05 145.980
AAUSAT CUBESAT 2 22 May 22:53:58 22:55:22 11° 272° (W) 22:56:33 437.432
UKube-1 22 May 22:56:29 23:00:48 81° 257° (WSW) 23:05:10 .
DX 1 22 May 22:58:04 23:02:24 73° 258° (WSW) 23:06:46 434.975-435.025
CUBEBUG 1 22 May 23:06:07 23:09:58 32° 70° (ENE) 23:13:54 437.445
ANTELSAT 22 May 23:07:48 23:11:30 26° 94° (E) 23:15:12 437.575/2403.000
Oscar 11 22 May 23:10:09 23:13:02 17° 269° (W) 23:15:45 145.826/435.025
DANDE 22 May 23:17:01 23:20:27 13° 50° (NE) 23:24:10 436.750
HUMSAT D 22 May 23:18:05 23:22:17 48° 261° (W) 23:26:30 437.325/437.525
UWE-3 22 May 23:20:25 23:23:55 20° 269° (W) 23:27:18 435.000/436.395/437.385
AISAT 22 May 23:23:11 23:27:37 79° 257° (WSW) 23:32:06 437.250
POLYITAN 1 22 May 23:24:48 23:27:45 18° 92° (E) 23:30:49 437.675
QB50P1 22 May 23:25:31 23:28:28 18° 92° (E) 23:31:32 145.935-145.965
BUGSAT 1 22 May 23:32:17 23:34:36 15° 90° (E) 23:37:06 437.445
TIGRISAT 22 May 23:42:28 23:46:52 61° 100° (E) 23:51:10 435.000
FUNcube-1 22 May 23:44:31 23:47:07 14° 271° (W) 23:49:30 145.935
50 SAT 22 May 23:46:03 23:49:49 37° 263° (W) 23:53:34 437.505
NANOSAT C BR1 22 May 23:57:52 00:01:56 41° 98° (E) 00:05:58 145.865
UNISAT 6 23 May 00:00:45 00:05:13 81° 284° (WNW) 00:09:33 437.425
QB50P2 23 May 00:02:13 00:06:23 48° 99° (E) 00:10:32 145.880/145.840
Cosmos 2504 23 May 00:02:14 00:07:22 20° 277° (W) 00:12:09 435.465 / 435.565
SPROUT 23 May 00:03:19 00:07:15 37° 71° (ENE) 00:11:16 437.525
GONETS M04 23 May 00:10:46 00:18:10 30° 66° (ENE) 00:25:43
ESTCUBE 1 23 May 00:14:13 00:18:27 40° 262° (W) 00:22:40 437.505/2401.250
POPSAT HIP 1 23 May 00:15:39 00:19:57 67° 101° (ESE) 00:24:12 437.405
CUSAT 1 23 May 00:19:03 00:26:15 40° 68° (ENE) 00:32:14 437.405
DUCHIFAT 1 23 May 00:21:34 00:25:52 76° 102° (ESE) 00:30:07 145.980
VELOX 1 23 May 00:31:50 00:34:40 16° 269° (W) 00:37:19 145.980
CUBEBUG 1 23 May 00:42:55 00:46:25 23° 267° (W) 00:49:50 437.445
ANTELSAT 23 May 00:44:27 00:48:18 28° 291° (WNW) 00:51:58 437.575/2403.000
TISAT 1 23 May 00:44:53 00:49:07 80° 77° (ENE) 00:53:24 437.305
DANDE 23 May 00:57:42 01:05:56 61° 74° (ENE) 01:12:43 436.750
ITUPSAT 1 23 May 00:59:19 01:02:41 20° 65° (ENE) 01:06:12 437.325
POLYITAN 1 23 May 00:59:50 01:03:52 38° 289° (WNW) 01:07:49 437.675
QB50P1 23 May 01:00:30 01:04:31 38° 289° (WNW) 01:08:29 145.935-145.965
BUGSAT 1 23 May 01:06:15 01:10:24 49° 287° (WNW) 01:14:30 437.445
ISS 23 May 01:08:30 01:11:19 28° 136° (SE) 01:14:12 145.825
BEESAT 23 May 01:09:33 01:13:23 26° 67° (ENE) 01:17:20 436.000
SWISSCUBE 23 May 01:16:53 01:21:03 32° 69° (ENE) 01:25:18 437.505
TIGRISAT 23 May 01:20:51 01:23:08 14° 297° (WNW) 01:25:13 435.000
Oscar 19 23 May 01:27:27 01:29:58 14° 88° (E) 01:32:46 437.125/150
NANOSAT C BR1 23 May 01:34:29 01:37:29 18° 294° (WNW) 01:40:21 145.865
QB50P2 23 May 01:39:13 01:41:56 16° 295° (WNW) 01:44:29 145.880/145.840
SPROUT 23 May 01:40:17 01:43:30 20° 268° (W) 01:46:37 437.525
POPSAT HIP 1 23 May 01:53:31 01:55:20 12° 297° (WNW) 01:56:57 437.405
DUCHIFAT 1 23 May 01:59:59 02:01:07 11° 298° (WNW) 02:02:01 145.980
CUSAT 1 23 May 02:01:55 02:08:57 39° 272° (W) 02:14:37 437.405
GONETS M04 23 May 02:07:02 02:15:41 61° 268° (W) 02:24:11
O/OREOS (USA 219) 23 May 02:08:50 02:12:41 28° 58° (ENE) 02:16:36 437.305
STARS 23 May 02:10:21 02:11:56 12° 62° (ENE) 02:13:44 437.465
PCSat 23 May 02:18:35 02:23:54 64° 116° (ESE) 02:29:18 145.827
KKS-1 23 May 02:28:33 02:32:22 29° 69° (ENE) 02:36:16 437.445
ITUPSAT 1 23 May 02:35:44 02:40:18 45° 261° (W) 02:44:53 437.325
DANDE 23 May 02:41:50 02:48:32 28° 276° (W) 02:54:08 436.750
ISS 23 May 02:44:38 02:47:41 36° 333° (NNW) 02:50:46 145.825
BEESAT 23 May 02:46:45 02:51:06 35° 263° (W) 02:55:26 436.000
Cosmos 2499 23 May 02:49:44 02:56:36 51° 76° (ENE) 03:03:29 435.465 / 435.565
SWISSCUBE 23 May 02:54:54 02:58:57 27° 265° (W) 03:02:56 437.505
Oscar 19 23 May 03:04:47 03:09:57 70° 286° (WNW) 03:15:03 437.125/150
ITAMSAT 1 23 May 03:08:42 03:13:32 38° 97° (E) 03:18:24 435.822/435.867
BEESAT 3 23 May 03:14:35 03:17:15 17° 41° (NE) 03:19:58 437.485
Gurwin Techsat 1B 23 May 03:19:23 03:24:29 45° 98° (E) 03:29:35 435.225
JAS-2 23 May 03:41:39 03:42:59 11° 86° (E) 03:44:41 435.910
STARS 23 May 03:43:24 03:47:51 73° 258° (WSW) 03:52:19 437.465
O/OREOS (USA 219) 23 May 03:48:14 03:52:05 28° 256° (WSW) 03:55:50 437.305
BEESAT 2 23 May 03:56:26 04:00:08 31° 49° (NE) 04:03:48 435.950
PCSat 23 May 04:03:37 04:07:50 22° 316° (NW) 04:11:59 145.827
KKS-1 23 May 04:05:07 04:08:59 27° 265° (W) 04:12:48 437.445
VERMONT LUNAR 23 May 04:16:20 04:19:05 26° 157° (SSE) 04:21:49 437.305
ISS 23 May 04:22:46 04:24:48 15° 353° (N) 04:26:49 145.825
AO-7 23 May 04:28:01 04:35:21 34° 96° (E) 04:42:51 29.400- 29.500
SO-50 23 May 04:36:07 04:40:39 52° 118° (ESE) 04:45:22 436.795
Cosmos 2499 23 May 04:43:36 04:49:24 27° 274° (W) 04:55:01 435.465 / 435.565
HORYU 2 23 May 04:47:08 04:51:31 58° 101° (E) 04:55:53 437.375
ITAMSAT 1 23 May 04:48:31 04:52:54 28° 294° (WNW) 04:57:13 435.822/435.867
BEESAT 3 23 May 04:51:36 04:55:37 58° 241° (WSW) 04:59:34 437.485
AIST 2 23 May 04:55:00 04:58:57 37° 50° (NE) 05:02:52 435.215
Gurwin Techsat 1B 23 May 04:59:59 05:04:14 24° 295° (WNW) 05:08:21 435.225
MOZHAYETS 4 23 May 05:00:28 05:05:04 88° 73° (ENE) 05:09:40
JAS-2 23 May 05:23:45 05:28:58 78° 286° (WNW) 05:34:12 435.910
PHONESAT 2.4 23 May 05:28:06 05:31:07 28° 157° (SSE) 05:34:09 2401.200-2431.200
BEESAT 2 23 May 05:34:41 05:38:07 25° 246° (WSW) 05:41:27 435.950
VERMONT LUNAR 23 May 05:52:51 05:56:02 66° 172° (S) 05:59:13 437.305
Cosmos 2491 23 May 05:54:56 06:01:05 21° 61° (ENE) 06:07:35 435.465 / 435.565
STRAND 1 23 May 05:59:20 06:02:15 16° 62° (ENE) 06:05:23 437.568
ISS 23 May 05:59:52 06:02:09 17° 13° (NNE) 06:04:28 145.825
SO-50 23 May 06:17:40 06:21:31 23° 318° (NW) 06:25:24 436.795
AO-7 23 May 06:20:25 06:28:32 56° 295° (WNW) 06:36:35 29.400- 29.500
HORYU 2 23 May 06:25:14 06:27:44 15° 296° (WNW) 06:30:03 437.375
CUBESAT XI-V 23 May 06:26:44 06:31:14 57° 73° (ENE) 06:35:46 437.345
CUTE-I 23 May 06:28:27 06:32:04 19° 91° (E) 06:35:54 437.470
PRISM 23 May 06:33:04 06:36:38 30° 70° (ENE) 06:40:16 437.425
AIST 2 23 May 06:34:01 06:37:21 22° 247° (WSW) 06:40:32 435.215
Cubesat XI-IV 23 May 06:47:01 06:51:33 28° 94° (E) 06:56:11 437.490
YUBILEINY 23 May 06:51:09 06:56:08 18° 79° (E) 07:01:38 435.215
M-CUBED/EXP-1 PRIME 23 May 07:05:17 07:09:37 63° 69° (ENE) 07:13:38 437.505
PHONESAT 2.4 23 May 07:05:32 07:08:59 68° 172° (S) 07:12:26 2401.200-2431.200
AUBIESAT-1 23 May 07:17:43 07:22:03 76° 71° (ENE) 07:26:04 437.475
VERMONT LUNAR 23 May 07:29:59 07:33:09 61° 190° (S) 07:36:20 437.305
ISS 23 May 07:35:51 07:39:06 59° 32° (NNE) 07:42:20 145.825
STRAND 1 23 May 07:35:54 07:40:58 68° 258° (WSW) 07:46:04 437.568
Cosmos 2491 23 May 07:50:24 07:59:19 86° 263° (W) 08:08:07 435.465 / 435.565
AIST 1 23 May 08:04:08 08:07:46 26° 73° (ENE) 08:11:29
CUBESAT XI-V 23 May 08:06:34 08:09:07 14° 271° (W) 08:11:28 437.345
CUTE-I 23 May 08:07:20 08:12:34 56° 288° (WNW) 08:17:48 437.470
PRISM 23 May 08:08:58 08:12:09 21° 266° (W) 08:15:16 437.425
AO-7 23 May 08:16:00 08:19:41 13° 315° (NW) 08:22:56 29.400- 29.500
Cubesat XI-IV 23 May 08:26:49 08:31:45 38° 291° (WNW) 08:36:39 437.490
BRITE-PL 23 May 08:33:05 08:38:04 31° 93° (E) 08:42:58 437.365/2234.400
M-CUBED/EXP-1 PRIME 23 May 08:43:00 08:44:46 12° 264° (W) 08:46:15 437.505
YUBILEINY 23 May 08:43:05 08:51:53 89° 97° (E) 09:00:41 435.215
DOVE 4 23 May 08:43:25 08:46:14 15° 87° (E) 08:49:13 437.250
PHONESAT 2.4 23 May 08:43:35 08:47:02 63° 189° (S) 08:50:27 2401.200-2431.200
RS-15 23 May 08:47:23 08:55:37 27° 105° (ESE) 09:04:25 29.354- 29.394
GOMX 1 23 May 08:57:58 09:02:49 33° 94° (E) 09:07:33 467.674
VERMONT LUNAR 23 May 09:07:30 09:10:04 22° 205° (SSW) 09:12:38 437.305
ISS 23 May 09:13:04 09:15:14 16° 227° (SW) 09:17:20 145.825
CANX-2 23 May 09:23:49 09:27:41 35° 96° (E) 09:31:34 2200.000
PCSat 23 May 09:25:17 09:26:48 11° 33° (NNE) 09:28:32 145.827
UNISAT 6 23 May 09:26:57 09:27:51 11° 62° (ENE) 09:29:00 437.425
CUTE 1.7 + AOD 2 23 May 09:28:04 09:31:55 35° 97° (E) 09:35:48 437.475
HO-68 23 May 09:35:09 09:42:04 50° 100° (E) 09:48:58 435.675
AIST 1 23 May 09:41:43 09:45:24 26° 270° (W) 09:49:01
Cosmos 2491 23 May 09:49:42 09:55:00 17° 282° (WNW) 09:59:45 435.465 / 435.565
DELFI C3 23 May 09:55:51 09:57:32 13° 89° (E) 09:59:26 145.870
SEEDS 23 May 09:57:17 10:01:27 63° 100° (E) 10:05:35 437.485
FUNcube-1 23 May 09:57:28 09:57:55 10° 86° (E) 09:58:38 145.935
ANTELSAT 23 May 10:06:49 10:10:42 27° 68° (ENE) 10:14:39 437.575/2403.000
BRITE-PL 23 May 10:11:21 10:16:37 38° 291° (WNW) 10:21:41 437.365/2234.400
CUBEBUG 2 23 May 10:12:59 10:16:48 27° 94° (E) 10:20:33 437.445
COMPASS 1 23 May 10:17:28 10:21:38 87° 101° (E) 10:25:47 437.405
POLYITAN 1 23 May 10:18:43 10:21:14 16° 65° (ENE) 10:23:55 437.675
QB50P1 23 May 10:19:12 10:21:39 16° 65° (ENE) 10:24:17 145.935-145.965
DOVE 4 23 May 10:19:23 10:24:36 65° 286° (WNW) 10:29:31 437.250
PHONESAT 2.4 23 May 10:21:59 10:24:50 24° 205° (SSW) 10:27:40 2401.200-2431.200
BUGSAT 1 23 May 10:24:05 10:25:16 11° 63° (ENE) 10:26:39 437.445
CINEMA 3 23 May 10:28:53 10:33:46 81° 102° (ESE) 10:38:23 145.822/145.860
AAUSAT CUBESAT 2 23 May 10:33:21 10:37:29 72° 284° (WNW) 10:41:35 437.432
ZACube-1 23 May 10:33:25 10:37:09 28° 94° (E) 10:40:52 437.345
GOMX 1 23 May 10:36:01 10:40:54 33° 292° (WNW) 10:45:33 467.674
TIGRISAT 23 May 10:40:52 10:45:27 56° 74° (ENE) 10:50:04 435.000
YUBILEINY 23 May 10:43:54 10:50:09 20° 300° (WNW) 10:55:58 435.215
Cosmos 2504 23 May 10:44:34 10:52:49 59° 93° (E) 11:00:35 435.465 / 435.565
UKube-1 23 May 10:44:58 10:47:39 16° 91° (E) 10:50:30 .
DX 1 23 May 10:47:04 10:50:09 19° 92° (E) 10:53:20 434.975-435.025
NANOSAT C BR1 23 May 10:50:40 10:54:26 32° 70° (ENE) 10:58:17 145.865
QB50P2 23 May 10:55:18 10:59:14 37° 71° (ENE) 11:03:14 145.880/145.840
Oscar 11 23 May 10:55:21 10:59:42 88° 109° (ESE) 11:03:59 145.826/435.025
RS-15 23 May 10:56:00 11:06:55 80° 305° (NW) 11:18:11 29.354- 29.394
UNISAT 6 23 May 10:59:16 11:04:00 90° 78° (ENE) 11:08:43 437.425
CANX-2 23 May 11:00:17 11:03:26 20° 292° (WNW) 11:06:27 2200.000
HUMSAT D 23 May 11:02:26 11:05:55 26° 94° (E) 11:09:24 437.325/437.525
CUTE 1.7 + AOD 2 23 May 11:04:31 11:07:39 20° 292° (WNW) 11:10:40 437.475
PCSat 23 May 11:06:17 11:11:36 53° 55° (NE) 11:16:54 145.827
POPSAT HIP 1 23 May 11:08:26 11:12:34 50° 73° (ENE) 11:16:46 437.405
UWE-3 23 May 11:08:55 11:13:26 88° 109° (ESE) 11:17:45 435.000/436.395/437.385
DUCHIFAT 1 23 May 11:13:52 11:18:02 57° 74° (ENE) 11:22:16 145.980
AISAT 23 May 11:14:33 11:17:46 20° 92° (E) 11:21:07 437.250
50 SAT 23 May 11:22:36 11:25:44 23° 94° (E) 11:28:54 437.505
HO-68 23 May 11:23:19 11:29:35 33° 297° (WNW) 11:35:43 435.675
SO-50 23 May 11:28:55 11:30:24 11° 30° (NNE) 11:32:04 436.795
DELFI C3 23 May 11:29:07 11:33:00 49° 287° (WNW) 11:36:52 145.870
FUNcube-1 23 May 11:30:30 11:34:53 69° 284° (WNW) 11:39:06 145.935
SEEDS 23 May 11:35:05 11:36:47 12° 296° (WNW) 11:38:18 437.485
ANTELSAT 23 May 11:43:07 11:47:23 32° 264° (W) 11:51:35 437.575/2403.000
CUBEBUG 2 23 May 11:49:33 11:53:29 28° 291° (WNW) 11:57:13 437.445
POLYITAN 1 23 May 11:52:36 11:56:46 50° 261° (W) 12:01:00 437.675
QB50P1 23 May 11:53:00 11:57:09 50° 261° (W) 12:01:21 145.935-145.965
BUGSAT 1 23 May 11:56:06 12:00:13 69° 259° (WSW) 12:04:24 437.445
ESTCUBE 1 23 May 12:06:25 12:10:40 40° 98° (E) 12:14:57 437.505/2401.250
CINEMA 3 23 May 12:08:18 12:10:16 12° 299° (WNW) 12:11:59 145.822/145.860
ZACube-1 23 May 12:09:46 12:13:28 26° 291° (WNW) 12:17:01 437.345
TIGRISAT 23 May 12:19:46 12:22:36 15° 271° (W) 12:25:13 435.000
UKube-1 23 May 12:19:54 12:24:04 45° 288° (WNW) 12:28:12 .
VELOX 1 23 May 12:19:58 12:24:29 86° 287° (WNW) 12:28:58 145.980
DX 1 23 May 12:22:28 12:26:36 39° 289° (WNW) 12:30:40 434.975-435.025
NANOSAT C BR1 23 May 12:26:58 12:30:21 22° 267° (W) 12:33:40 145.865
DANDE 23 May 12:29:29 12:31:34 12° 75° (ENE) 12:34:19 436.750
CUBEBUG 1 23 May 12:30:20 12:34:46 64° 102° (ESE) 12:39:10 437.445
TISAT 1 23 May 12:31:08 12:32:54 13° 89° (E) 12:34:52 437.305
QB50P2 23 May 12:32:09 12:35:17 19° 268° (W) 12:38:20 145.880/145.840
HUMSAT D 23 May 12:38:06 12:41:38 26° 291° (WNW) 12:45:04 437.325/437.525
Cosmos 2504 23 May 12:39:29 12:46:41 30° 291° (WNW) 12:53:19 435.465 / 435.565
Oscar 19 23 May 12:44:00 12:47:55 23° 65° (ENE) 12:51:58 437.125/150
POPSAT HIP 1 23 May 12:46:25 12:48:49 14° 270° (W) 12:51:02 437.405
AISAT 23 May 12:50:19 12:54:33 40° 289° (WNW) 12:58:43 437.250
PCSat 23 May 12:50:32 12:54:41 22° 252° (WSW) 12:58:39 145.827
DUCHIFAT 1 23 May 12:52:21 12:54:18 12° 271° (W) 12:56:02 145.980
50 SAT 23 May 12:57:10 13:00:25 25° 290° (WNW) 13:03:35 437.505
Gurwin Techsat 1B 23 May 13:06:12 13:06:44 10° 58° (ENE) 13:07:35 435.225
SO-50 23 May 13:07:19 13:12:11 52° 52° (NE) 13:16:58 436.795
RS-15 23 May 13:12:07 13:21:29 30° 334° (NNW) 13:30:59 29.354- 29.394
GONETS M04 23 May 13:12:25 13:19:54 34° 85° (E) 13:27:38
CUSAT 1 23 May 13:23:31 13:29:57 43° 89° (E) 13:37:32 437.405
SPROUT 23 May 13:25:17 13:29:39 72° 102° (ESE) 13:33:58 437.525
AO-7 23 May 13:42:01 13:43:56 11° 43° (NE) 13:46:19 29.400- 29.500
ESTCUBE 1 23 May 13:43:55 13:47:19 21° 293° (WNW) 13:50:36 437.505/2401.250
TISAT 1 23 May 14:04:53 14:09:06 57° 287° (WNW) 14:13:16 437.305
DANDE 23 May 14:06:32 14:13:06 67° 95° (E) 14:21:16 436.750
CUBEBUG 1 23 May 14:08:24 14:10:39 13° 296° (WNW) 14:12:42 437.445
Oscar 19 23 May 14:21:59 14:26:59 47° 261° (W) 14:32:01 437.125/150
ITAMSAT 1 23 May 14:26:49 14:31:52 59° 73° (ENE) 14:37:00 435.822/435.867
ITUPSAT 1 23 May 14:35:54 14:40:28 44° 98° (E) 14:45:04 437.325
Gurwin Techsat 1B 23 May 14:40:37 14:45:54 73° 75° (ENE) 14:51:13 435.225
BEESAT 23 May 14:46:11 14:50:53 58° 100° (E) 14:55:36 436.000
SO-50 23 May 14:48:40 14:52:24 21° 249° (WSW) 14:55:59 436.795
SWISSCUBE 23 May 14:53:58 14:58:46 76° 103° (ESE) 15:03:33 437.505
SPROUT 23 May 15:03:35 15:05:12 12° 297° (WNW) 15:06:36 437.525
CUSAT 1 23 May 15:06:01 15:12:42 42° 291° (WNW) 15:20:21 437.405
GONETS M04 23 May 15:07:50 15:16:27 54° 285° (WNW) 15:25:04
Cosmos 2499 23 May 15:25:52 15:33:29 44° 90° (E) 15:40:41 435.465 / 435.565
AO-7 23 May 15:27:06 15:34:53 48° 63° (ENE) 15:42:46 29.400- 29.500
RS-15 23 May 15:30:37 15:38:53 22° 8° (N) 15:47:31 29.354- 29.394
STARS 23 May 15:33:48 15:37:02 20° 93° (E) 15:40:22 437.465
JAS-2 23 May 15:34:58 15:41:29 48° 71° (ENE) 15:47:20 435.910
HORYU 2 23 May 15:45:23 15:49:46 55° 73° (ENE) 15:54:11 437.375
DANDE 23 May 15:51:20 15:57:15 27° 299° (WNW) 16:03:52 436.750
KKS-1 23 May 15:55:13 15:59:38 55° 100° (E) 16:04:02 437.445
ITAMSAT 1 23 May 16:08:29 16:11:52 17° 270° (W) 16:15:02 435.822/435.867
ITUPSAT 1 23 May 16:14:31 16:18:06 21° 295° (WNW) 16:21:34 437.325
O/OREOS (USA 219) 23 May 16:21:20 16:25:16 31° 105° (ESE) 16:29:16 437.305
Gurwin Techsat 1B 23 May 16:23:43 16:26:33 14° 272° (W) 16:29:05 435.225
BEESAT 23 May 16:25:17 16:28:19 17° 296° (WNW) 16:31:11 436.000
SWISSCUBE 23 May 16:33:48 16:36:04 13° 298° (WNW) 16:38:06 437.505
MOZHAYETS 4 23 May 16:56:12 16:59:32 20° 92° (E) 17:02:59
STARS 23 May 17:09:31 17:13:39 37° 289° (WNW) 17:17:42 437.465
GONETS M04 23 May 17:14:52 17:16:02 10° 310° (NW) 17:16:27
Cosmos 2499 23 May 17:19:09 17:26:44 38° 288° (WNW) 17:33:44 435.465 / 435.565
AO-7 23 May 17:20:09 17:27:50 40° 263° (W) 17:35:28 29.400- 29.500
JAS-2 23 May 17:20:47 17:26:44 29° 265° (W) 17:32:02 435.910
HORYU 2 23 May 17:24:19 17:26:49 14° 270° (W) 17:29:06 437.375
KKS-1 23 May 17:33:10 17:35:52 15° 296° (WNW) 17:38:25 437.445
RS-15 23 May 17:44:37 17:55:24 44° 40° (NE) 18:06:45 29.354- 29.394
CUTE-I 23 May 17:50:17 17:54:53 32° 67° (ENE) 17:59:36 437.470
O/OREOS (USA 219) 23 May 18:00:50 18:04:42 27° 302° (WNW) 18:08:32 437.305
Cubesat XI-IV 23 May 18:09:09 18:14:12 47° 71° (ENE) 18:19:19 437.490
CUBESAT XI-V 23 May 18:24:38 18:27:05 14° 89° (E) 18:29:45 437.345
MOZHAYETS 4 23 May 18:32:41 18:36:57 39° 289° (WNW) 18:41:10
BEESAT 3 23 May 18:45:06 18:48:17 23° 113° (ESE) 18:51:35 437.485
YUBILEINY 23 May 18:53:17 19:01:29 45° 73° (ENE) 19:09:45 435.215
Cosmos 2491 23 May 18:57:45 19:03:56 23° 81° (E) 19:10:31 435.465 / 435.565
BEESAT 2 23 May 19:27:40 19:31:40 53° 119° (ESE) 19:35:43 435.950
CUTE-I 23 May 19:30:10 19:34:57 33° 264° (W) 19:39:42 437.470
BRITE-PL 23 May 19:43:57 19:48:21 33° 68° (ENE) 19:53:09 437.365/2234.400
STRAND 1 23 May 19:46:18 19:51:07 40° 98° (E) 19:55:57 437.568
DOVE 4 23 May 19:49:00 19:52:10 17° 63° (ENE) 19:55:34 437.250
PRISM 23 May 19:49:51 19:53:53 48° 100° (E) 19:57:55 437.425
Cubesat XI-IV 23 May 19:50:27 19:54:36 22° 268° (W) 19:58:36 437.490
RS-15 23 May 19:57:07 20:08:37 66° 244° (WSW) 20:20:29 29.354- 29.394
CUBESAT XI-V 23 May 20:00:21 20:04:59 58° 286° (WNW) 20:09:35 437.345
HO-68 23 May 20:04:01 20:10:28 39° 64° (ENE) 20:17:03 435.675
GOMX 1 23 May 20:05:52 20:10:24 35° 69° (ENE) 20:15:14 467.674
CANX-2 23 May 20:17:10 20:20:44 27° 70° (ENE) 20:24:23 2200.000
CUTE 1.7 + AOD 2 23 May 20:21:19 20:24:54 27° 69° (ENE) 20:28:32 437.475
M-CUBED/EXP-1 PRIME 23 May 20:21:25 20:24:33 39° 104° (ESE) 20:27:40 437.505
BEESAT 3 23 May 20:22:21 20:26:07 34° 310° (NW) 20:29:54 437.485
AIST 2 23 May 20:30:54 20:35:08 73° 120° (ESE) 20:39:25 435.215
AUBIESAT-1 23 May 20:33:11 20:36:24 48° 105° (ESE) 20:39:36 437.475
AIST 1 23 May 20:35:17 20:37:36 15° 87° (E) 20:40:05
